Weather History for KHVS - August, 2014

Change the Weather History Date:

Tuesday, August 19, 2014

  Actual Average (KFLO) Record (KFLO)
Temperature  
Mean Temperature 79 °F 80 °F  
Max Temperature 87 °F 89 °F 99 °F (1983)
Min Temperature 71 °F 71 °F 62 °F (1976)
Degree Days  
Heating Degree Days 0 0  
Month to date heating degree days 0  
Since 1 June heating degree days 1  
Since 1 July heating degree days 0  
Cooling Degree Days 14 15  
Month to date cooling degree days 295  
Year to date cooling degree days 1501  
Since 1 June cooling degree days 1194  
Growing Degree Days 29 (Base 50)    
Moisture  
Dew Point 65 °F    
Average Humidity 70    
Maximum Humidity 100    
Minimum Humidity 27    
Precipitation  
Precipitation 0.00 in 0.16 in 2.50 in (1986)
Month to date precipitation 3.28  
Year to date precipitation 28.52  
Sea Level Pressure  
Sea Level Pressure 29.87 in    
Wind  
Wind Speed 2 mph (WSW)    
Max Wind Speed 10 mph    
Max Gust Speed 17 mph    
Visibility 10 miles    
Events      
T = Trace of Precipitation, MM = Missing Value Source: NWS Daily Summary

Daily Weather History Graph

Daily Weather History Graph

Search for Another Location

Airport or City:

Trip Planner

Search our weather history database for the weather conditions in past years. The results will help you decide how hot, cold, wet, or windy it might be!

Date:

Astronomy

Aug. 19, 2014 Rise Set
Actual Time 6:44 AM EDT 8:03 PM EDT
Civil Twilight 6:18 AM EDT 8:29 PM EDT
Nautical Twilight 5:46 AM EDT 9:00 PM EDT
Astronomical Twilight 5:13 AM EDT 9:33 PM EDT
Moon 1:39 AM EDT (8/19) 3:53 PM EDT (8/19)
Length of Visible Light 14h 11m
Length of Day
13h 18m
Waning Crescent, 29% of the Moon is Illuminated
Aug 19
Waning Crescent
Aug 25
New
Sep 2
First Quarter
Sep 8
Full
Sep 15
Last Quarter

Hourly Weather History & Observations

Time (EDT) Temp. Heat Index Dew Point Humidity Pressure Visibility Wind Dir Wind Speed Gust Speed Precip Events Conditions
12:15 AM 71.6 °F - 71.6 °F 100% 29.85 in 10.0 mi Calm Calm - N/A   Clear
12:35 AM 71.6 °F - 71.6 °F 100% 29.85 in 10.0 mi Calm Calm - N/A   Clear
12:55 AM 71.6 °F - - N/A% 29.85 in 10.0 mi Calm Calm - N/A   Clear
1:15 AM 71.6 °F - 71.6 °F 100% 29.84 in 10.0 mi Calm Calm - N/A   Clear
1:35 AM 71.6 °F - 71.6 °F 100% 29.84 in 10.0 mi Calm Calm - N/A   Clear
1:55 AM 73.4 °F - 71.6 °F 94% 29.84 in 10.0 mi Calm Calm - N/A   Clear
2:15 AM 73.4 °F - 71.6 °F 94% 29.84 in 10.0 mi Calm Calm - N/A   Clear
2:35 AM 71.6 °F - 71.6 °F 100% 29.84 in 7.0 mi Calm Calm - N/A   Clear
2:55 AM 73.4 °F - 71.6 °F 94% 29.84 in 10.0 mi SW 3.5 mph - N/A   Clear
3:15 AM 73.4 °F - 71.6 °F 94% 29.83 in 10.0 mi Calm Calm - N/A   Clear
3:35 AM 71.6 °F - 71.6 °F 100% 29.83 in 10.0 mi Calm Calm - N/A   Clear
3:55 AM 71.6 °F - 69.8 °F 94% 29.83 in 10.0 mi Calm Calm - N/A   Clear
4:15 AM 71.6 °F - 69.8 °F 94% 29.82 in 10.0 mi WSW 3.5 mph - N/A   Clear
4:35 AM 71.6 °F - 69.8 °F 94% 29.82 in 10.0 mi SW 3.5 mph - N/A   Clear
4:55 AM 71.6 °F - 69.8 °F 94% 29.83 in 10.0 mi Calm Calm - N/A   Clear
5:15 AM 71.6 °F - 69.8 °F 94% 29.84 in 10.0 mi Calm Calm - N/A   Clear
5:35 AM 71.6 °F - 69.8 °F 94% 29.84 in 10.0 mi West 3.5 mph - N/A   Clear
5:55 AM 71.6 °F - 69.8 °F 94% 29.84 in 10.0 mi WSW 4.6 mph - N/A   Clear
6:15 AM 71.6 °F - 69.8 °F 94% 29.85 in 10.0 mi WSW 4.6 mph - N/A   Clear
6:35 AM 71.6 °F - 69.8 °F 94% 29.85 in 10.0 mi West 3.5 mph - N/A   Clear
6:55 AM 71.6 °F - 69.8 °F 94% 29.86 in 10.0 mi Calm Calm - N/A   Clear
7:15 AM 71.6 °F - 69.8 °F 94% 29.86 in 10.0 mi West 3.5 mph - N/A   Clear
7:35 AM 73.4 °F - 69.8 °F 88% 29.87 in 10.0 mi West 3.5 mph - N/A   Clear
7:55 AM 73.4 °F - 69.8 °F 88% 29.87 in 7.0 mi WSW 5.8 mph - N/A   Clear
8:15 AM 73.4 °F - 69.8 °F 88% 29.88 in 10.0 mi WSW 4.6 mph - N/A   Clear
8:35 AM 75.2 °F - 68.0 °F 78% 29.88 in 10.0 mi WSW 6.9 mph - N/A   Clear
8:55 AM 77.0 °F - 68.0 °F 74% 29.88 in 10.0 mi WSW 4.6 mph - N/A   Clear
9:15 AM 78.8 °F - 60.8 °F 54% 29.88 in 10.0 mi West 6.9 mph - N/A   Clear
9:35 AM 80.6 °F 81.1 °F 59.0 °F 48% 29.89 in 10.0 mi West 6.9 mph - N/A   Clear
9:55 AM 80.6 °F 81.1 °F 59.0 °F 48% 29.89 in 10.0 mi West 8.1 mph - N/A   Clear
10:15 AM 82.4 °F 82.0 °F 57.2 °F 42% 29.90 in 10.0 mi West 5.8 mph - N/A   Clear
10:35 AM 82.4 °F 82.0 °F 57.2 °F 42% 29.90 in 10.0 mi West 4.6 mph - N/A   Clear
10:55 AM 84.2 °F 83.0 °F 55.4 °F 37% 29.89 in 10.0 mi West 8.1 mph - N/A   Clear
11:15 AM 84.2 °F 82.8 °F 53.6 °F 35% 29.89 in 10.0 mi West 3.5 mph - N/A   Clear
11:35 AM 86.0 °F 84.5 °F 55.4 °F 35% 29.90 in 10.0 mi SW 8.1 mph - N/A   Scattered Clouds
11:55 AM 86.0 °F 84.2 °F 53.6 °F 33% 29.89 in 10.0 mi SW 6.9 mph - N/A   Clear
12:15 PM 86.0 °F - 51.8 °F 31% 29.89 in 10.0 mi WSW 5.8 mph - N/A   Clear
12:35 PM 87.8 °F - 51.8 °F 29% 29.88 in 7.0 mi SW 8.1 mph - N/A   Scattered Clouds
12:55 PM 87.8 °F - 50.0 °F 27% 29.88 in 10.0 mi SW 6.9 mph - N/A   Scattered Clouds
1:15 PM 86.0 °F 84.2 °F 53.6 °F 33% 29.87 in 10.0 mi SW 5.8 mph - N/A   Mostly Cloudy
1:35 PM 86.0 °F 84.5 °F 55.4 °F 35% 29.87 in 10.0 mi SSW 5.8 mph - N/A   Mostly Cloudy
1:55 PM 86.0 °F 85.4 °F 59.0 °F 40% 29.87 in 7.0 mi SSW 10.4 mph - N/A   Mostly Cloudy
2:15 PM 80.6 °F 81.5 °F 60.8 °F 51% 29.88 in 5.0 mi SSW 9.2 mph 17.3 mph N/A   Overcast
2:35 PM 77.0 °F - 73.4 °F 89% 29.88 in 5.0 mi SSW 8.1 mph - N/A   Overcast
2:55 PM 77.0 °F - 77.0 °F 100% 29.87 in 5.0 mi WSW 5.8 mph - N/A   Mostly Cloudy
3:15 PM 77.0 °F - 73.4 °F 89% 29.86 in 7.0 mi WSW 5.8 mph - N/A   Mostly Cloudy
3:35 PM 78.8 °F - 69.8 °F 74% 29.86 in 10.0 mi SW 4.6 mph - N/A   Scattered Clouds
3:55 PM 80.6 °F 81.8 °F 62.6 °F 54% 29.86 in 10.0 mi WSW 4.6 mph - N/A   Scattered Clouds
4:15 PM 82.4 °F 82.5 °F 59.0 °F 45% 29.86 in 10.0 mi SW 4.6 mph - N/A   Mostly Cloudy
4:35 PM 80.6 °F 81.5 °F 60.8 °F 51% 29.86 in 10.0 mi West 3.5 mph - N/A   Scattered Clouds
4:55 PM 82.4 °F 82.9 °F 60.8 °F 48% 29.85 in 10.0 mi WSW 3.5 mph - N/A   Mostly Cloudy
5:15 PM 82.4 °F 82.9 °F 60.8 °F 48% 29.85 in 10.0 mi Calm Calm - N/A   Overcast
5:35 PM 82.4 °F 82.9 °F 60.8 °F 48% 29.86 in 10.0 mi WSW 3.5 mph - N/A   Mostly Cloudy
5:55 PM 82.4 °F 82.9 °F 60.8 °F 48% 29.86 in 10.0 mi Calm Calm - N/A   Scattered Clouds
6:35 PM 82.4 °F 83.4 °F 62.6 °F 51% 29.85 in 7.0 mi West 3.5 mph - N/A   Clear
6:55 PM 80.6 °F 81.8 °F 62.6 °F 54% 29.85 in 10.0 mi West 4.6 mph - N/A   Clear
7:15 PM 78.8 °F - 60.8 °F 54% 29.86 in 10.0 mi WSW 4.6 mph - N/A   Clear
7:35 PM 78.8 °F - 60.8 °F 54% 29.87 in 10.0 mi West 4.6 mph - N/A   Mostly Cloudy
7:55 PM 78.8 °F - 59.0 °F 51% 29.88 in 10.0 mi Calm Calm - N/A   Overcast
8:15 PM 78.8 °F - 60.8 °F 54% 29.87 in 10.0 mi Calm Calm - N/A   Scattered Clouds
8:35 PM 77.0 °F - 60.8 °F 57% 29.88 in 10.0 mi West 3.5 mph - N/A   Scattered Clouds
8:55 PM 78.8 °F - 60.8 °F 54% 29.88 in 10.0 mi Calm Calm - N/A   Mostly Cloudy
9:15 PM 78.8 °F - 60.8 °F 54% 29.88 in 10.0 mi Calm Calm - N/A   Overcast
9:35 PM 77.0 °F - 64.4 °F 65% 29.89 in 10.0 mi Calm Calm - N/A   Mostly Cloudy
9:55 PM 77.0 °F - 69.8 °F 78% 29.89 in 10.0 mi Calm Calm - N/A   Mostly Cloudy
10:35 PM 77.0 °F - 69.8 °F 78% 29.89 in 10.0 mi Calm Calm - N/A   Scattered Clouds
10:55 PM 77.0 °F - 71.6 °F 83% 29.90 in 10.0 mi Calm Calm - N/A   Clear
11:15 PM 75.2 °F - 71.6 °F 89% 29.90 in 10.0 mi NE 3.5 mph - N/A   Clear
11:35 PM 75.2 °F - 71.6 °F 89% 29.91 in 10.0 mi Calm Calm - N/A   Clear
11:55 PM 73.4 °F - 71.6 °F 94% 29.91 in 10.0 mi Calm Calm - N/A   Clear